Showing default

VANGUARD 1, 5

Orbit data source: Space-Track

VANGUARD 1, 5 is a payload satellite owned by NRL (US) in LEO that was launched on Mon, 17 Mar 1958 UTC via a VANGUARD launch vehicle from the Air Force Eastern Test Range (AFETR). Payload-class satellites include a variety of spacecraft equipped with specific instruments for various scientific and technological missions. These include communications satellites like Starlink; space stations such as the ISS; scientific satellites like the Hubble; Earth observation satellites from companies like Planet Labs, Umbra, and HawkEye 360; GPS; miniature CubeSats for education and research; and military/defense satellites.

Loading next visibility...
Identifier
5, 1958-002B
Orbit
LEO
Country
Flag of USUS
Related business
Manufacturer
NRL
Mission
Civil Technology
Bus & Motor
NRL 6", Unknown motor
Mass
2 kg wet, 2 kg dry
Launch date (UTC)
1958-03-17 (68 years ago)
Launch vehicle
VANGUARD
Launch site
Air Force Eastern Test Range (AFETR)
Object type
Payload
Rocket body
Debris
Shape & HBR
Sphere, 0.1 m
Radar Cross Section
0.020 m², Small (<0.1 m²)

Expand to show TLE details & history
Last TLE update: 2 days ago

TLE from 2 days ago
0 VANGUARD 1
1 00005U 58002B   25258.81643954 -.00000054  00000-0 -64438-4 0  9992
2 00005  34.2501  81.1407 1842206 341.4123  12.6954 10.85923711413455
Epoch: 2025-09-15T19:35Z
TLE epoch observation values (Epoch: 2025-09-15T19:35:40.376Z)
Latitude
-0.00003°
Longitude
152.20676°
Altitude
706.128 km
Speed
8.142 km/s
True Right ascension
05h 24m 33s
True Declination
0° 00' 00"
Sunlit
Object was in daylight at epoch
Visualization orbit readout
Latitude
Unknown
Longitude
Unknown
Altitude
Unknown
Speed
Unknown
Apparent Right ascension
Unknown
Apparent Declination
Unknown
Sunlit
N/A
Visualization observer readout
Local Sidereal Time
13:40:50
Azimuth
Unknown
Elevation
Unknown
Doppler factor
Unknown
Orbital elements
Apogee altitude
3,826.033 km
Perigee altitude
651.256 km
Semi-major axis
8,616.781 km
Eccentricity
0.18422
Inclination
34.2501°
RAAN
81.1407°
Arg. of periapsis
341.4123°
True anomaly
18.64746°
Mean anomaly
12.6954°
Eccentric anomaly
15.5196°
Mean motion
2.71347 °/min
Orbital period
132.67 mins
BSTAR
-0.000064438
Loading maneuver chart data...
Computing Atmospheric mass density...
Loading historical data...
Loading historical data...
Loading historical data...
Loading historical data...
Loading historical data...
Loading historical data...
Loading historical data...
Other satellites on launch #2 in the year 1958 (1958-03-17 UTC)

Documentation

Showing up to 5 results
|